Terug naar catalogus

PICOSAT 5

ActiefWetenschapLEO
NORAD 26093·PAYLOAD·🇺🇸 United States

Gelanceerd Jan 27, 2000 vanaf Vandenberg Space Force Base

Loading…

Volgende Passages (komende 24 uur)

TLE

VersSource: Space-Track

Epoch: Sep 14, 2026, 06:09 UTC

1 26093U 00004L   26257.25686253  .00001680  00000-0  32142-3 0  9993
2 26093 100.2027  66.0056 0022717 315.4247  44.5122 14.65578725405492

Volg PICOSAT 5 in realtime met AllMySat

Download on the App Store